Home   Weather   Hopedale   Past weeks

Flag for Canada Past Weather in Hopedale, Newfoundland and Labrador, Canada — Yesterday and Last 2 Weeks

Now
15 °F

Cold.


Feels Like: 15 °F
Forecast: 7 / 18 °F
Wind: 1 mph from North

Location: Hopedale

Current Time: Jan 19, 2017 at 1:10:23 pm

Latest Report: Jan 19, 2017 at 12:00 pm


Visibility: N/A

Pressure: 29.77 "Hg

Humidity: 92%

Dew Point: 13 °F

Location of HopedaleLocation

Past Weather in Hopedale — Graph

°F

Hopedale Temperature Yesterday

Maximum temperature yesterday: 11 °F (at 11:00 pm)
Minimum temperature yesterday: -14 °F (at 7:00 am)
Average temperature yesterday: -3 °F

High & Low Weather Summary for the Past Weeks

 TemperatureHumidityPressure
High36 °F (Jan 12, 12:00 am)100% (Jan 5, 10:00 am)30.53 "Hg (Jan 5, 10:00 am)
Low-14 °F (Jan 18, 7:00 am)52% (Jan 14, 10:00 am)28.67 "Hg (Jan 5, 6:00 pm)
Average3 °F73%29.82 "Hg
* Reported Jan 4 12:00 pm — Jan 19 12:00 pm, Hopedale, Weather by CustomWeather, © 2017

Note: Actual official high and low records may vary slightly from our data, if they occured in-between our weather recording intervals... More about our weather records

Advertising

Hopedale Weather History for the Previous 24 Hours

Scroll right to see more
 ConditionsComfort  
Time TempWeatherWind HumidityBarometerVisibility
12:00 pm
Thu, Jan 19
15 °FCold.1 mph92%29.77 "HgN/A
11:00 am14 °FCold.1 mph91%29.78 "HgN/A
10:00 am13 °FCold.1 mph93%29.78 "HgN/A
9:00 am12 °FCold.1 mph92%29.78 "HgN/A
8:00 am12 °FCold.1 mph92%29.77 "HgN/A
7:00 am11 °FCold.1 mph82%29.77 "HgN/A
6:00 am11 °FCold.1 mph77%29.76 "HgN/A
5:00 am11 °FCold.2 mph76%29.77 "HgN/A
4:00 am11 °FCold.2 mph73%29.78 "HgN/A
3:00 am10 °FFrigid.2 mph73%29.80 "HgN/A
2:00 am10 °FFrigid.1 mph73%29.82 "HgN/A
1:00 am9 °FFrigid.1 mph79%29.82 "HgN/A
12:00 am10 °FFrigid.2 mph75%29.84 "HgN/A
11:00 pm
Wed, Jan 18
11 °FCold.2 mph75%29.87 "HgN/A
10:00 pm10 °FFrigid.2 mph75%29.88 "HgN/A
9:00 pm10 °FFrigid.2 mph71%29.92 "HgN/A
8:00 pm10 °FFrigid.2 mph67%29.95 "HgN/A
7:00 pm8 °FFrigid.3 mph69%29.98 "HgN/A
6:00 pm8 °FFrigid.2 mph59%30.00 "HgN/A
5:00 pm6 °FFrigid.2 mph56%30.04 "HgN/A
4:00 pm4 °FFrigid.2 mph60%30.07 "HgN/A
3:00 pm2 °FFrigid.1 mph60%30.09 "HgN/A
2:00 pm0 °FFrigid.1 mph61%30.12 "HgN/A
1:00 pm-1 °FFrigid.1 mph61%30.15 "HgN/A
Weather by CustomWeather, © 2017

See weather overviewHow to use our weather pages